Weather History for Port Angeles, WA

Change the Weather History Date:

Sunday, July 14, 2013

  Actual Average Record
Temperature  
Mean Temperature 60 °F -  
Max Temperature 68 °F 68 °F 88 °F (1973)
Min Temperature 51 °F 50 °F 43 °F (1974)
Degree Days  
Heating Degree Days 6    
Growing Degree Days 10 (Base 50)    
Moisture  
Dew Point 49 °F    
Average Humidity 73    
Maximum Humidity 89    
Minimum Humidity 52    
Precipitation  
Precipitation 0.00 in - - ()
Sea Level Pressure  
Sea Level Pressure 30.11 in    
Wind  
Wind Speed 8 mph (WNW)    
Max Wind Speed 14 mph    
Max Gust Speed 24 mph    
Visibility 10 miles    
Events      
Averages and records for this station are not official NWS values.
T = Trace of Precipitation, MM = Missing Value Source: NWS Daily Summary

Daily Weather History Graph

Daily Weather History Graph

Search for Another Location

Airport:

Trip Planner

Search our weather history database for the weather conditions in past years. The results will help you decide how hot, cold, wet, or windy it might be!

Date:

Astronomy

Jul. 14, 2013 Rise Set
Actual Time 5:29 AM PDT 9:10 PM PDT
Civil Twilight 4:49 AM PDT 9:49 PM PDT
Nautical Twilight 3:55 AM PDT 10:42 PM PDT
Astronomical Twilight 2:39 AM PDT 11:57 PM PDT
Moon 12:26 PM PDT (7/14) 11:49 PM PDT (7/14)
Length of Visible Light 17h 00m
Length of Day
15h 41m
Waxing Crescent, 36% of the Moon is Illuminated
Jul 14
Waxing Crescent
Jul 15
First Quarter
Jul 22
Full
Jul 29
Last Quarter
Aug 6
New

Hourly Weather History & Observations

Time (PDT) Temp. Dew Point Humidity Pressure Visibility Wind Dir Wind Speed Gust Speed Precip Events Conditions
12:53 AM 55.9 °F 46.0 °F 69% 30.15 in 10.0 mi West 10.4 mph - N/A   Clear
1:53 AM 57.0 °F 45.0 °F 64% 30.14 in 10.0 mi West 10.4 mph - N/A   Clear
2:53 AM 52.0 °F 46.9 °F 83% 30.14 in 10.0 mi NW 5.8 mph - N/A   Clear
3:53 AM 51.1 °F 46.9 °F 86% 30.14 in 10.0 mi West 4.6 mph - N/A   Clear
4:53 AM 51.1 °F 45.0 °F 80% 30.14 in 10.0 mi West 5.8 mph - N/A   Clear
5:53 AM 51.1 °F 46.0 °F 83% 30.14 in 10.0 mi NW 3.5 mph - N/A   Clear
6:53 AM 54.0 °F 48.0 °F 80% 30.15 in 10.0 mi WNW 4.6 mph - N/A   Clear
7:53 AM 55.9 °F 50.0 °F 80% 30.14 in 10.0 mi NW 5.8 mph - N/A   Clear
8:53 AM 54.0 °F 50.0 °F 86% 30.15 in 10.0 mi NW 5.8 mph - N/A   Clear
9:15 AM 55.0 °F 51.1 °F 86% 30.15 in 10.0 mi WNW 8.1 mph - N/A   Partly Cloudy
9:53 AM 55.9 °F 51.1 °F 84% 30.15 in 10.0 mi NW 4.6 mph - N/A   Clear
10:53 AM 62.1 °F 52.0 °F 70% 30.14 in 10.0 mi WNW 6.9 mph - N/A   Clear
11:53 AM 62.1 °F 52.0 °F 70% 30.13 in 10.0 mi North 5.8 mph - N/A   Clear
12:53 PM 63.0 °F 51.1 °F 65% 30.13 in 10.0 mi Variable 5.8 mph - N/A   Clear
1:53 PM 64.9 °F 52.0 °F 63% 30.12 in 10.0 mi WNW 11.5 mph - N/A   Clear
2:53 PM 66.9 °F 51.1 °F 57% 30.10 in 10.0 mi NW 6.9 mph - N/A   Clear
3:53 PM 68.0 °F 50.0 °F 52% 30.09 in 10.0 mi NW 13.8 mph 19.6 mph N/A   Clear
4:53 PM 68.0 °F 51.1 °F 55% 30.07 in 10.0 mi NW 11.5 mph - N/A   Clear
5:53 PM 66.0 °F 50.0 °F 56% 30.06 in 10.0 mi West 11.5 mph 21.9 mph N/A   Clear
6:53 PM 62.1 °F 50.0 °F 65% 30.05 in 10.0 mi West 12.7 mph 24.2 mph N/A   Clear
7:53 PM 59.0 °F 50.0 °F 72% 30.06 in 10.0 mi NNW 8.1 mph - N/A   Clear
8:53 PM 57.0 °F 50.0 °F 77% 30.07 in 10.0 mi West 5.8 mph - N/A   Clear
9:53 PM 55.0 °F 48.9 °F 80% 30.07 in 10.0 mi West 4.6 mph - N/A   Clear
10:53 PM 54.0 °F 48.9 °F 83% 30.07 in 10.0 mi WNW 4.6 mph - N/A   Clear
11:53 PM 52.0 °F 48.9 °F 89% 30.06 in 10.0 mi NW 4.6 mph - N/A   Clear